Tracking 19192 objects as of 18-Jun-2018
HD Live streaming from Space Station
objects crossing your sky now

SL-8 R/B

Track SL-8 R/B now!
10-day predictions


NORAD ID: 22591
Int'l Code: 1993-020B
Perigee: 960.6 km
Apogee: 999.9 km
Inclination: 82.9 °
Period: 104.5 minutes
Semi major axis: 7351 km
RCS: 6.0922 m2 (large)
Launch date: April 1, 1993
Source: Commonwealth of Independent States (former USSR) (CIS)
Launch site: PLESETSK MISSILE AND SPACE COMPLEX (PKMTR)

Note: This is a ROCKET BODY
aabbcc
Your satellite tracking list
Your tracking list is empty




NASA's NSSDC Master Catalog

Two Line Element Set (TLE):
1 22591U 93020B   18168.93347888 +.00000086 +00000-0 +71169-4 0  9999
2 22591 082.9285 127.4355 0026737 071.0927 348.2258 13.77415277266834
Source of the keplerian elements: AFSPC